Home > Weather > Kloten > Past weeks

Flag for Switzerland Weather for the Past 2 Weeks in Kloten, Zurich, Switzerland

Now
41 °F

Fog.


Feels Like: 41 °F
Forecast: 35 / 65 °F
Wind: 2 mph from North

Location: Zurich-Kloten

Current Time: May 4, 2016 at 2:11:51 AM

Latest Report: May 4, 2016 at 1:20 AM


Visibility: N/A

Pressure: 30.33 "Hg

Humidity: 93%

Dew Point: 39 °F

Location of KlotenLocation

Historic Weather in Kloten — Graph

°F

Kloten Temperature Yesterday

Maximum temperature yesterday: 59 °F (at 12:20 PM)
Minimum temperature yesterday: 41 °F (at 5:50 AM)
Average temperature yesterday: 50 °F

High & Low Weather Summary for the Past Weeks

 TemperatureHumidityPressure
High68 °F (Apr 21, 3:50 PM)100% (Apr 25, 3:20 AM)30.33 "Hg (Apr 25, 3:20 AM)
Low27 °F (Apr 28, 5:50 AM)29% (Apr 29, 6:20 PM)29.65 "Hg (Apr 26, 5:50 PM)
Average47 °F72%30.03 "Hg
* Reported Apr 19 12:20 AM — May 4 12:50 AM, Kloten, Weather by CustomWeather, © 2016

Note: Actual official high and low records may vary slightly from our data, if they occured in-between our weather recording intervals... More about our weather records

Advertising

Kloten Weather History for the Previous 24 Hours

Scroll right to see more
 ConditionsComfort  
Time TempWeatherWind HumidityBarometerVisibility
12:50 AM
Wed, May 4
43 °FPassing clouds.No wind93%30.33 "HgN/A
12:20 AM45 °FPassing clouds.1 mph87%30.33 "HgN/A
11:50 PM
Tue, May 3
46 °FPartly cloudy.3 mph82%30.33 "HgN/A
11:20 PM46 °FScattered showers. Passing clouds.5 mph82%30.33 "HgN/A
10:50 PM46 °FSprinkles. Partly cloudy.3 mph87%30.30 "HgN/A
10:20 PM48 °FPassing clouds.6 mph76%30.30 "HgN/A
9:50 PM48 °FPartly cloudy.2 mph76%30.30 "HgN/A
9:20 PM48 °FPartly sunny.5 mph76%30.27 "HgN/A
8:50 PM48 °FPartly sunny.5 mph76%30.27 "HgN/A
8:20 PM50 °FPartly sunny.2 mph71%30.24 "HgN/A
7:50 PM50 °FScattered clouds.6 mph71%30.24 "HgN/A
7:20 PM50 °FScattered clouds.3 mph71%30.24 "HgN/A
6:50 PM52 °FScattered clouds.6 mph67%30.24 "HgN/A
6:20 PM52 °FBroken clouds.9 mph72%30.21 "HgN/A
5:50 PM50 °FBroken clouds.8 mph71%30.21 "HgN/A
5:20 PM48 °FSprinkles. Partly sunny.7 mph87%30.21 "HgN/A
4:50 PM48 °FRain showers. Partly sunny.9 mph87%30.18 "HgN/A
4:20 PM48 °FRain showers. Partly sunny.16 mph82%30.18 "HgN/A
3:50 PM54 °FBroken clouds.18 mph67%30.15 "HgN/A
3:20 PM57 °FBroken clouds.17 mph55%30.12 "HgN/A
2:50 PM59 °FBroken clouds.15 mph48%30.12 "HgN/A
2:20 PM59 °FPartly sunny.15 mph45%30.12 "HgN/A
1:20 PM59 °FScattered clouds.12 mph48%30.12 "HgN/A
12:50 PM59 °FScattered clouds.8 mph51%30.12 "HgN/A
12:20 PM59 °FScattered clouds.8 mph55%30.15 "HgN/A
11:50 AM57 °FBroken clouds.9 mph59%30.15 "HgN/A
11:20 AM57 °FBroken clouds.7 mph59%30.15 "HgN/A
10:50 AM55 °FScattered clouds.7 mph67%30.15 "HgN/A
10:20 AM55 °FScattered clouds.7 mph67%30.15 "HgN/A
9:50 AM54 °FScattered clouds.7 mph72%30.15 "HgN/A
9:20 AM54 °FPassing clouds.8 mph72%30.15 "HgN/A
8:20 AM48 °FScattered clouds.1 mph87%30.15 "Hg5 mi
7:20 AM45 °FScattered clouds.1 mph93%30.15 "Hg4 mi
6:50 AM41 °FPassing clouds.1 mph93%30.15 "Hg4 mi
6:20 AM43 °FPassing clouds.3 mph93%30.12 "Hg4 mi
5:50 AM41 °FPassing clouds.5 mph93%30.12 "Hg4 mi
5:20 AM43 °FPassing clouds.3 mph93%30.12 "Hg5 mi
4:50 AM45 °FPassing clouds.2 mph87%30.12 "Hg5 mi
4:20 AM43 °FPassing clouds.3 mph93%30.12 "Hg5 mi
3:20 AM45 °FPassing clouds.2 mph87%30.12 "Hg5 mi
2:50 AM45 °FPassing clouds.5 mph93%30.12 "Hg5 mi
Weather by CustomWeather, © 2016

See weather overviewHow to use our weather pages